INTELSAT 15 (IS-15)

Last updated on Tue Sep 16 2025 00:02:46 GMT+0000 (Coordinated Universal Time)

1 36106U 09067A 25258.37614212 -.00000201 00000+0 00000+0 0 9998 2 36106 0.0291 264.6204 0002278 283.7404 26.7930 1.00271178 38477
UTC large
Height (km)
Speed (km/s)
/
Latitude / Longitude
Inclination (degrees)
Orbital Period (minutes)
Azimuth
Elevation
Range (km)
Doppler Factor

Next 0 passes for location: London (51.5072 / 0.1276)

Sorry there are no passes over London.